Le Puy, France

4:13 AM CET on December 09, 2016 (GMT +0100)
Le Puy

Weather History for LFHP - December, 2012

Change the Weather History Date:

Wednesday, December 5, 2012

  Actual Average Record
Temperature  
Mean Temperature 36 °F -  
Max Temperature 39 °F - - ()
Min Temperature 32 °F - - ()
Degree Days  
Heating Degree Days 30    
Moisture  
Dew Point 28 °F    
Average Humidity 77    
Maximum Humidity 100    
Minimum Humidity 54    
Precipitation  
Precipitation 0.01 in - - ()
Sea Level Pressure  
Sea Level Pressure 29.73 in    
Wind  
Wind Speed 7 mph ()    
Max Wind Speed 15 mph    
Max Gust Speed 22 mph    
Visibility 6.4 miles    
Events Fog , Snow    
T = Trace of Precipitation, MM = Missing Value Source: Averaged Metar Reports

Daily Weather History Graph

Daily Weather History Graph

Search for Another Location

Airport or City:

Trip Planner

Search our weather history database for the weather conditions in past years. The results will help you decide how hot, cold, wet, or windy it might be!

Date:

Astronomy

Dec. 05, 2012 Rise Set
Actual Time 8:07 AM CET 5:03 PM CET
Civil Twilight 7:34 AM CET 5:36 PM CET
Nautical Twilight 6:57 AM CET 6:13 PM CET
Astronomical Twilight 6:21 AM CET 6:49 PM CET
Moon 11:49 PM CET (12/5) 12:12 PM CET (12/5)
Length of Visible Light 10h 02m
Length of Day
8h 55m
Waning Gibbous, 62% of the Moon is Illuminated
Dec 5
Waning Gibbous
Dec 6
Last Quarter
Dec 13
New
Dec 20
First Quarter
Dec 28
Full

Hourly Weather History & Observations

Time (CET) Temp. Windchill Dew Point Humidity Pressure Visibility Wind Dir Wind Speed Gust Speed Precip Events Conditions
12:00 AM 35.6 °F 29.2 °F 28.4 °F 75% 29.77 in 6.2 mi West 8.1 mph - N/A   Scattered Clouds
12:30 AM 35.6 °F 29.2 °F 28.4 °F 75% 29.77 in 6.2 mi West 8.1 mph - N/A   Mostly Cloudy
1:00 AM 35 °F - 28 °F 68%  in 12 mi West 10.4 mph - -   Clear
1:00 AM 35.6 °F 28.0 °F 28.4 °F 75% 29.74 in 6.2 mi West 10.4 mph - N/A   Mostly Cloudy
1:30 AM 33.8 °F 25.8 °F 26.6 °F 75% 29.74 in 6.2 mi West 10.4 mph 21.9 mph N/A   Partly Cloudy
2:00 AM 33.8 °F 24.8 °F 26.6 °F 75% 29.74 in 6.2 mi WNW 12.7 mph - N/A   Unknown
2:30 AM 33.8 °F 27.0 °F 26.6 °F 75% 29.74 in 6.2 mi West 8.1 mph - N/A   Scattered Clouds
3:00 AM 33.8 °F 26.4 °F 26.6 °F 75% 29.71 in 6.2 mi West 9.2 mph - N/A   Scattered Clouds
3:30 AM 33.8 °F 27.0 °F 26.6 °F 75% 29.71 in 6.2 mi West 8.1 mph - N/A   Partly Cloudy
4:00 AM 33.8 °F 28.6 °F 26.6 °F 75% 29.71 in 6.2 mi West 5.8 mph - N/A   Partly Cloudy
4:30 AM 33.8 °F 28.6 °F 26.6 °F 75% 29.71 in 6.2 mi WSW 5.8 mph - N/A   Mostly Cloudy
5:00 AM 33.8 °F 29.6 °F 26.6 °F 75% 29.68 in 6.2 mi West 4.6 mph - N/A Snow Light Snow
5:30 AM 33.8 °F 27.7 °F 26.6 °F 75% 29.68 in 6.2 mi WNW 6.9 mph - N/A   Partly Cloudy
6:00 AM 33.8 °F 27.0 °F 26.6 °F 75% 29.68 in 6.2 mi West 8.1 mph - N/A   Partly Cloudy
6:30 AM 33.8 °F 27.0 °F 26.6 °F 75% 29.68 in 6.2 mi West 8.1 mph - N/A   Partly Cloudy
7:00 AM 33 °F - 27 °F 70%  in 12 mi West 5.8 mph - -   Clear
7:00 AM 32.0 °F 26.4 °F 26.6 °F 80% 29.68 in 6.2 mi West 5.8 mph - N/A   Partly Cloudy
7:30 AM 33.8 °F 30.8 °F 26.6 °F 75% 29.71 in 6.2 mi West 3.5 mph - N/A   Mostly Cloudy
8:00 AM 33.8 °F - 28.4 °F 81% 29.71 in 2.2 mi Variable 2.3 mph - N/A Snow Light Snow
8:30 AM 32.0 °F - 28.4 °F 87% 29.71 in 6.2 mi Variable 1.2 mph - N/A   Mostly Cloudy
9:00 AM 33.8 °F - 28.4 °F 81% 29.71 in 6.2 mi Variable 2.3 mph - N/A   Overcast
9:30 AM 33.8 °F 30.8 °F 26.6 °F 75% 29.71 in 6.2 mi West 3.5 mph - N/A   Overcast
10:00 AM 35.6 °F - 26.6 °F 70% 29.71 in 6.2 mi Variable 2.3 mph - N/A   Mostly Cloudy
10:30 AM 35.6 °F - 26.6 °F 70% 29.74 in 6.2 mi Variable 2.3 mph - N/A   Overcast
11:00 AM 35.6 °F 30.7 °F 26.6 °F 70% 29.74 in 6.2 mi West 5.8 mph - N/A   Mostly Cloudy
11:30 AM 35.6 °F 29.2 °F 26.6 °F 70% 29.74 in 6.2 mi West 8.1 mph - N/A   Mostly Cloudy
12:00 PM 33.8 °F 27.7 °F 26.6 °F 75% 29.74 in - WNW 6.9 mph - N/A Snow Light Snow
12:30 PM 35.6 °F 30.7 °F 28.4 °F 75% 29.74 in 6.2 mi WNW 5.8 mph - N/A   Partly Cloudy
1:00 PM 37 °F - 26 °F 54%  in 12 mi West 6.9 mph - -   Clear
1:00 PM 37.4 °F 32.1 °F 26.6 °F 65% 29.71 in 6.2 mi West 6.9 mph - N/A   Partly Cloudy
1:30 PM 37.4 °F 31.4 °F 26.6 °F 65% 29.71 in 6.2 mi West 8.1 mph - N/A   Mostly Cloudy
4:00 PM 37.4 °F 30.3 °F 26.6 °F 65% 29.71 in 6.2 mi West 10.4 mph - N/A   Scattered Clouds
4:30 PM 35.6 °F 28.6 °F 26.6 °F 70% 29.71 in 6.2 mi West 9.2 mph - N/A   Mostly Cloudy
5:00 PM 35.6 °F 29.2 °F 26.6 °F 70% 29.71 in 6.2 mi West 8.1 mph - N/A   Mostly Cloudy
5:30 PM 35.6 °F 27.5 °F 26.6 °F 70% 29.74 in 6.2 mi West 11.5 mph - N/A   Mostly Cloudy
6:00 PM 35.6 °F 27.1 °F 28.4 °F 75% 29.74 in 6.2 mi WNW 12.7 mph - N/A   Mostly Cloudy
6:30 PM 35.6 °F 28.6 °F 28.4 °F 75% 29.74 in 6.2 mi West 9.2 mph - N/A   Mostly Cloudy
7:00 PM 35 °F - 28 °F 68%  in 12 mi West 9.2 mph - -   Clear
7:00 PM 35.6 °F 28.6 °F 28.4 °F 75% 29.74 in 6.2 mi West 9.2 mph - N/A   Mostly Cloudy
7:30 PM 33.8 °F 25.8 °F 30.2 °F 87% 29.77 in - WNW 10.4 mph - N/A Snow Light Snow
8:00 PM 33.8 °F 26.4 °F 32.0 °F 93% 29.77 in 6.2 mi West 9.2 mph - N/A Snow Light Snow
8:30 PM 33.8 °F 27.7 °F 30.2 °F 87% 29.77 in 6.2 mi West 6.9 mph - N/A   Mostly Cloudy
9:00 PM 32.0 °F 26.4 °F 32.0 °F 100% 29.77 in 0.7 mi WNW 5.8 mph - N/A Fog , Snow Snow
9:30 PM 32.0 °F 24.8 °F 32.0 °F 100% 29.77 in 3.7 mi West 8.1 mph - N/A Snow Light Snow
10:00 PM 32.0 °F 24.2 °F 32.0 °F 100% 29.80 in 5.0 mi WNW 9.2 mph - N/A Snow Light Snow
10:30 PM 32.0 °F 22.5 °F 30.2 °F 93% 29.80 in 6.2 mi NW 12.7 mph - N/A   Mostly Cloudy
11:00 PM 32.0 °F 23.0 °F 28.4 °F 87% 29.80 in 6.2 mi WNW 11.5 mph - N/A   Mostly Cloudy
11:30 PM 32.0 °F 21.6 °F 28.4 °F 87% 29.80 in 6.2 mi WNW 15.0 mph - N/A   Overcast